Year,Month,Day,Hour,Minute,Value (Times are PST for temperature in C)
2014,12,15,00,00,1.90
2014,12,15,00,01,2.00
2014,12,15,00,02,2.00
2014,12,15,00,03,2.10
2014,12,15,00,04,2.10
2014,12,15,00,05,2.20
2014,12,15,00,06,2.20
2014,12,15,00,07,2.20
2014,12,15,00,08,2.20
2014,12,15,00,09,2.20
2014,12,15,00,10,2.20
2014,12,15,00,11,2.20
2014,12,15,00,12,2.30
2014,12,15,00,13,2.30
2014,12,15,00,14,2.30
2014,12,15,00,15,2.30
2014,12,15,00,16,2.30
2014,12,15,00,17,2.30
2014,12,15,00,18,2.30
2014,12,15,00,19,2.30
2014,12,15,00,20,2.30
2014,12,15,00,21,2.30
2014,12,15,00,22,2.30
2014,12,15,00,23,2.30
2014,12,15,00,24,2.30
2014,12,15,00,25,2.30
2014,12,15,00,26,2.40
2014,12,15,00,27,2.40
2014,12,15,00,28,2.40
2014,12,15,00,29,2.40
2014,12,15,00,30,2.50
2014,12,15,00,31,2.50
2014,12,15,00,32,2.50
2014,12,15,00,33,2.50
2014,12,15,00,34,2.60
2014,12,15,00,35,2.60
2014,12,15,00,36,2.60
2014,12,15,00,37,2.70
2014,12,15,00,38,2.70
2014,12,15,00,39,2.70
2014,12,15,00,40,2.70
2014,12,15,00,41,2.70
2014,12,15,00,42,2.70
2014,12,15,00,43,2.70
2014,12,15,00,44,2.70
2014,12,15,00,45,2.70
2014,12,15,00,46,2.70
2014,12,15,00,47,2.70
2014,12,15,00,48,2.70
2014,12,15,00,49,2.70
2014,12,15,00,50,2.70
2014,12,15,00,51,2.70
2014,12,15,00,52,2.70
2014,12,15,00,53,2.70
2014,12,15,00,54,2.70
2014,12,15,00,55,2.70
2014,12,15,00,56,2.70
2014,12,15,00,57,2.70
2014,12,15,00,58,2.70
2014,12,15,00,59,2.70
2014,12,15,01,00,2.60
2014,12,15,01,01,2.60
2014,12,15,01,02,2.60
2014,12,15,01,03,2.60
2014,12,15,01,04,2.60
2014,12,15,01,05,2.60
2014,12,15,01,06,2.60
2014,12,15,01,07,2.60
2014,12,15,01,08,2.60
2014,12,15,01,09,2.60
2014,12,15,01,10,2.60
2014,12,15,01,11,2.60
2014,12,15,01,12,2.60
2014,12,15,01,13,2.60
2014,12,15,01,14,2.60
2014,12,15,01,15,2.60
2014,12,15,01,16,2.60
2014,12,15,01,17,2.60
2014,12,15,01,18,2.60
2014,12,15,01,19,2.60
2014,12,15,01,20,2.60
2014,12,15,01,21,2.60
2014,12,15,01,22,2.60
2014,12,15,01,23,2.60
2014,12,15,01,24,2.60
2014,12,15,01,25,2.50
2014,12,15,01,26,2.50
2014,12,15,01,27,2.50
2014,12,15,01,28,2.40
2014,12,15,01,29,2.40
2014,12,15,01,30,2.40
2014,12,15,01,31,2.30
2014,12,15,01,32,2.30
2014,12,15,01,33,2.30
2014,12,15,01,34,2.30
2014,12,15,01,35,2.30
2014,12,15,01,36,2.30
2014,12,15,01,37,2.20
2014,12,15,01,38,2.20
2014,12,15,01,39,2.20
2014,12,15,01,40,2.20
2014,12,15,01,41,2.20
2014,12,15,01,42,2.20
2014,12,15,01,43,2.10
2014,12,15,01,44,2.10
2014,12,15,01,45,2.10
2014,12,15,01,46,2.00
2014,12,15,01,47,2.00
2014,12,15,01,48,2.00
2014,12,15,01,49,2.00
2014,12,15,01,50,1.90
2014,12,15,01,51,1.90
2014,12,15,01,52,1.90
2014,12,15,01,53,1.90
2014,12,15,01,54,1.90
2014,12,15,01,55,1.90
2014,12,15,01,56,1.90
2014,12,15,01,57,1.80
2014,12,15,01,58,1.80
2014,12,15,01,59,1.80
2014,12,15,02,00,1.80
2014,12,15,02,01,1.80
2014,12,15,02,02,1.80
2014,12,15,02,03,1.80
2014,12,15,02,04,1.80
2014,12,15,02,05,1.80
2014,12,15,02,06,1.80
2014,12,15,02,07,1.80
2014,12,15,02,08,1.70
2014,12,15,02,09,1.70
2014,12,15,02,10,1.70
2014,12,15,02,11,1.70
2014,12,15,02,12,1.70
2014,12,15,02,13,1.70
2014,12,15,02,14,1.70
2014,12,15,02,15,1.70
2014,12,15,02,16,1.70
2014,12,15,02,17,1.70
2014,12,15,02,18,1.70
2014,12,15,02,19,1.70
2014,12,15,02,20,1.70
2014,12,15,02,21,1.70
2014,12,15,02,22,1.70
2014,12,15,02,23,1.70
2014,12,15,02,24,1.70
2014,12,15,02,25,1.70
2014,12,15,02,26,1.70
2014,12,15,02,27,1.70
2014,12,15,02,28,1.70
2014,12,15,02,29,1.70
2014,12,15,02,30,1.70
2014,12,15,02,31,1.70
2014,12,15,02,32,1.70
2014,12,15,02,33,1.70
2014,12,15,02,34,1.70
2014,12,15,02,35,1.60
2014,12,15,02,36,1.60
2014,12,15,02,37,1.60
2014,12,15,02,38,1.60
2014,12,15,02,39,1.60
2014,12,15,02,40,1.60
2014,12,15,02,41,1.50
2014,12,15,02,42,1.50
2014,12,15,02,43,1.50
2014,12,15,02,44,1.50
2014,12,15,02,45,1.50
2014,12,15,02,46,1.50
2014,12,15,02,47,1.40
2014,12,15,02,48,1.40
2014,12,15,02,49,1.40
2014,12,15,02,50,1.40
2014,12,15,02,51,1.40
2014,12,15,02,52,1.30
2014,12,15,02,53,1.30
2014,12,15,02,54,1.30
2014,12,15,02,55,1.30
2014,12,15,02,56,1.30
2014,12,15,02,57,1.20
2014,12,15,02,58,1.20
2014,12,15,02,59,1.20
2014,12,15,03,00,1.20
2014,12,15,03,01,1.20
2014,12,15,03,02,1.20
2014,12,15,03,03,1.20
2014,12,15,03,04,1.20
2014,12,15,03,05,1.20
2014,12,15,03,06,1.20
2014,12,15,03,07,1.20
2014,12,15,03,08,1.20
2014,12,15,03,09,1.20
2014,12,15,03,10,1.20
2014,12,15,03,11,1.30
2014,12,15,03,12,1.30
2014,12,15,03,13,1.30
2014,12,15,03,14,1.30
2014,12,15,03,15,1.30
2014,12,15,03,16,1.30
2014,12,15,03,17,1.30
2014,12,15,03,18,1.30
2014,12,15,03,19,1.30
2014,12,15,03,20,1.20
2014,12,15,03,21,1.20
2014,12,15,03,22,1.20
2014,12,15,03,23,1.20
2014,12,15,03,24,1.20
2014,12,15,03,25,1.20
2014,12,15,03,26,1.30
2014,12,15,03,27,1.30
2014,12,15,03,28,1.20
2014,12,15,03,29,1.20
2014,12,15,03,30,1.20
2014,12,15,03,31,1.20
2014,12,15,03,32,1.20
2014,12,15,03,33,1.20
2014,12,15,03,34,1.20
2014,12,15,03,35,1.20
2014,12,15,03,36,1.20
2014,12,15,03,37,1.20
2014,12,15,03,38,1.20
2014,12,15,03,39,1.20
2014,12,15,03,40,1.30
2014,12,15,03,41,1.30
2014,12,15,03,42,1.20
2014,12,15,03,43,1.20
2014,12,15,03,44,1.20
2014,12,15,03,45,1.20
2014,12,15,03,46,1.20
2014,12,15,03,47,1.20
2014,12,15,03,48,1.20
2014,12,15,03,49,1.20
2014,12,15,03,50,1.20
2014,12,15,03,51,1.20
2014,12,15,03,52,1.20
2014,12,15,03,53,1.20
2014,12,15,03,54,1.20
2014,12,15,03,55,1.30
2014,12,15,03,56,1.30
2014,12,15,03,57,1.30
2014,12,15,03,58,1.30
2014,12,15,03,59,1.30
2014,12,15,04,00,1.30
2014,12,15,04,01,1.30
2014,12,15,04,02,1.30
2014,12,15,04,03,1.30
2014,12,15,04,04,1.30
2014,12,15,04,05,1.30
2014,12,15,04,06,1.40
2014,12,15,04,07,1.40
2014,12,15,05,02,1.20
2014,12,15,05,03,1.20
2014,12,15,05,04,1.20
2014,12,15,05,05,1.30
2014,12,15,05,06,1.30
2014,12,15,05,07,1.30
2014,12,15,05,08,1.30
2014,12,15,05,09,1.30
2014,12,15,05,10,1.30
2014,12,15,05,11,1.30
2014,12,15,05,12,1.30
2014,12,15,05,13,1.30
2014,12,15,05,14,1.40
2014,12,15,05,15,1.40
2014,12,15,05,16,1.50
2014,12,15,05,17,1.50
2014,12,15,05,18,1.60
2014,12,15,05,19,1.50
2014,12,15,05,20,1.50
2014,12,15,05,21,1.50
2014,12,15,05,22,1.60
2014,12,15,05,23,1.60
2014,12,15,05,24,1.60
2014,12,15,05,25,1.60
2014,12,15,05,26,1.60
2014,12,15,05,27,1.60
2014,12,15,05,28,1.60
2014,12,15,05,29,1.60
2014,12,15,05,30,1.50
2014,12,15,05,31,1.50
2014,12,15,05,32,1.50
2014,12,15,05,33,1.50
2014,12,15,05,34,1.50
2014,12,15,05,35,1.50
2014,12,15,05,36,1.50
2014,12,15,05,37,1.50
2014,12,15,05,38,1.50
2014,12,15,05,39,1.60
2014,12,15,05,40,1.60
2014,12,15,05,41,1.60
2014,12,15,05,42,1.60
2014,12,15,05,43,1.60
2014,12,15,05,44,1.60
2014,12,15,05,45,1.70
2014,12,15,05,46,1.70
2014,12,15,05,47,1.70
2014,12,15,05,48,1.70
2014,12,15,05,49,1.70
2014,12,15,05,50,1.70
2014,12,15,05,51,1.80
2014,12,15,05,52,1.80
2014,12,15,05,53,1.80
2014,12,15,05,54,1.80
2014,12,15,05,55,1.90
2014,12,15,05,56,1.90
2014,12,15,05,57,1.90
2014,12,15,05,58,1.90
2014,12,15,05,59,1.90
2014,12,15,06,00,1.80
2014,12,15,06,01,1.80
2014,12,15,06,02,1.80
2014,12,15,06,03,1.80
2014,12,15,06,04,1.80
2014,12,15,06,05,1.80
2014,12,15,06,06,1.80
2014,12,15,06,07,1.70
2014,12,15,06,08,1.70
2014,12,15,06,09,1.70
2014,12,15,06,10,1.80
2014,12,15,06,11,1.70
2014,12,15,06,12,1.70
2014,12,15,06,13,1.70
2014,12,15,06,14,1.70
2014,12,15,06,15,1.70
2014,12,15,06,16,1.70
2014,12,15,06,17,1.70
2014,12,15,06,18,1.70
2014,12,15,06,19,1.70
2014,12,15,06,20,1.70
2014,12,15,06,21,1.70
2014,12,15,06,22,1.70
2014,12,15,06,23,1.70
2014,12,15,06,24,1.70
2014,12,15,06,25,1.70
2014,12,15,06,26,1.70
2014,12,15,06,27,1.70
2014,12,15,06,28,1.70
2014,12,15,06,29,1.60
2014,12,15,06,30,1.60
2014,12,15,06,31,1.60
2014,12,15,06,32,1.60
2014,12,15,06,33,1.60
2014,12,15,06,34,1.60
2014,12,15,06,35,1.60
2014,12,15,06,36,1.60
2014,12,15,06,37,1.60
2014,12,15,06,38,1.60
2014,12,15,06,39,1.50
2014,12,15,06,40,1.50
2014,12,15,06,41,1.50
2014,12,15,06,42,1.50
2014,12,15,06,43,1.50
2014,12,15,06,44,1.40
2014,12,15,06,45,1.40
2014,12,15,06,46,1.50
2014,12,15,06,47,1.50
2014,12,15,06,48,1.50
2014,12,15,06,49,1.50
2014,12,15,06,50,1.40
2014,12,15,06,51,1.40
2014,12,15,06,52,1.50
2014,12,15,06,53,1.40
2014,12,15,06,54,1.40
2014,12,15,06,55,1.40
2014,12,15,06,56,1.40
2014,12,15,06,57,1.40
2014,12,15,06,58,1.40
2014,12,15,06,59,1.40
2014,12,15,07,00,1.40
2014,12,15,07,01,1.40
2014,12,15,07,02,1.40
2014,12,15,07,03,1.40
2014,12,15,07,04,1.40
2014,12,15,07,05,1.40
2014,12,15,07,06,1.50
2014,12,15,07,07,1.50
2014,12,15,07,08,1.50
2014,12,15,07,09,1.50
2014,12,15,07,10,1.50
2014,12,15,07,11,1.50
2014,12,15,07,12,1.50
2014,12,15,07,13,1.50
2014,12,15,07,14,1.50
2014,12,15,07,15,1.50
2014,12,15,07,16,1.50
2014,12,15,07,17,1.50
2014,12,15,07,18,1.50
2014,12,15,07,19,1.50
2014,12,15,07,20,1.50
2014,12,15,07,21,1.50
2014,12,15,07,22,1.50
2014,12,15,07,23,1.50
2014,12,15,07,24,1.60
2014,12,15,07,25,1.60
2014,12,15,07,26,1.60
2014,12,15,07,27,1.60
2014,12,15,07,28,1.70
2014,12,15,07,29,1.70
2014,12,15,07,30,1.70
2014,12,15,07,31,1.70
2014,12,15,07,32,1.70
2014,12,15,07,33,1.70
2014,12,15,07,34,1.70
2014,12,15,07,35,1.70
2014,12,15,07,36,1.70
2014,12,15,07,37,1.70
2014,12,15,07,38,1.70
2014,12,15,07,39,1.80
2014,12,15,07,40,1.80
2014,12,15,07,41,1.80
2014,12,15,07,42,1.80
2014,12,15,07,43,1.80
2014,12,15,07,44,1.80
2014,12,15,07,45,1.80
2014,12,15,07,46,1.80
2014,12,15,07,47,1.80
2014,12,15,07,48,1.80
2014,12,15,07,49,1.80
2014,12,15,07,50,1.80
2014,12,15,07,51,1.80
2014,12,15,07,52,1.80
2014,12,15,07,53,1.80
2014,12,15,07,54,1.80
2014,12,15,07,55,1.80
2014,12,15,07,56,1.80
2014,12,15,07,57,1.80
2014,12,15,07,58,1.80
2014,12,15,07,59,1.80
2014,12,15,08,00,1.80
2014,12,15,08,01,1.80
2014,12,15,08,02,1.80
2014,12,15,08,03,1.90
2014,12,15,08,04,1.90
2014,12,15,08,05,1.90
2014,12,15,08,06,1.90
2014,12,15,08,07,1.90
2014,12,15,08,08,1.90
2014,12,15,08,09,2.00
2014,12,15,08,10,2.00
2014,12,15,08,11,2.00
2014,12,15,08,12,2.00
2014,12,15,08,13,2.00
2014,12,15,08,14,2.00
2014,12,15,08,15,2.00
2014,12,15,08,16,2.00
2014,12,15,08,17,2.00
2014,12,15,08,18,2.00
2014,12,15,08,19,2.00
2014,12,15,08,20,2.00
2014,12,15,08,21,2.10
2014,12,15,08,22,2.10
2014,12,15,08,23,2.10
2014,12,15,08,24,2.10
2014,12,15,08,25,2.10
2014,12,15,08,26,2.00
2014,12,15,08,27,2.00
2014,12,15,08,28,2.00
2014,12,15,08,29,2.10
2014,12,15,08,30,2.10
2014,12,15,08,31,2.10
2014,12,15,08,32,2.10
2014,12,15,08,33,2.10
2014,12,15,08,34,2.10
2014,12,15,08,35,2.10
2014,12,15,08,36,2.10
2014,12,15,08,37,2.10
2014,12,15,08,38,2.20
2014,12,15,08,39,2.20
2014,12,15,08,40,2.20
2014,12,15,08,41,2.20
2014,12,15,08,42,2.20
2014,12,15,08,43,2.20
2014,12,15,08,44,2.20
2014,12,15,08,45,2.20
2014,12,15,08,46,2.20
2014,12,15,08,47,2.20
2014,12,15,08,48,2.20
2014,12,15,08,49,2.20
2014,12,15,08,50,2.20
2014,12,15,08,51,2.30
2014,12,15,08,52,2.30
2014,12,15,08,53,2.30
2014,12,15,08,54,2.30
2014,12,15,08,55,2.30
2014,12,15,08,56,2.30
2014,12,15,08,57,2.30
2014,12,15,08,58,2.30
2014,12,15,08,59,2.30
2014,12,15,09,00,2.30
2014,12,15,09,01,2.30
2014,12,15,09,02,2.30
2014,12,15,09,03,2.30
2014,12,15,09,04,2.30
2014,12,15,09,05,2.30
2014,12,15,09,06,2.30
2014,12,15,09,07,2.30
2014,12,15,09,08,2.30
2014,12,15,09,09,2.30
2014,12,15,09,10,2.40
2014,12,15,09,11,2.40
2014,12,15,09,12,2.40
2014,12,15,09,13,2.40
2014,12,15,09,14,2.40
2014,12,15,09,15,2.40
2014,12,15,09,16,2.40
2014,12,15,09,17,2.40
2014,12,15,09,18,2.40
2014,12,15,09,19,2.40
2014,12,15,09,20,2.40
2014,12,15,09,21,2.40
2014,12,15,09,22,2.40
2014,12,15,09,23,2.40
2014,12,15,09,24,2.40
2014,12,15,09,25,2.50
2014,12,15,09,26,2.50
2014,12,15,09,27,2.50
2014,12,15,09,28,2.50
2014,12,15,09,29,2.50
2014,12,15,09,30,2.50
2014,12,15,09,31,2.60
2014,12,15,09,32,2.60
2014,12,15,09,33,2.60
2014,12,15,09,34,2.60
2014,12,15,09,35,2.60
2014,12,15,09,36,2.60
2014,12,15,09,37,2.70
2014,12,15,09,38,2.70
2014,12,15,09,39,2.70
2014,12,15,09,40,2.70
2014,12,15,09,41,2.70
2014,12,15,09,42,2.70
2014,12,15,09,43,2.70
2014,12,15,09,44,2.80
2014,12,15,09,45,2.80
2014,12,15,09,46,2.80
2014,12,15,09,47,2.80
2014,12,15,09,48,2.80
2014,12,15,09,49,2.80
2014,12,15,09,50,2.80
2014,12,15,09,51,2.80
2014,12,15,09,52,2.90
2014,12,15,09,53,2.90
2014,12,15,09,54,2.90
2014,12,15,09,55,2.90
2014,12,15,09,56,2.90
2014,12,15,09,57,2.90
2014,12,15,09,58,2.90
2014,12,15,09,59,2.90
2014,12,15,10,00,3.00
2014,12,15,10,01,3.00
2014,12,15,10,02,3.10
2014,12,15,10,03,3.10
2014,12,15,10,04,3.20
2014,12,15,10,05,3.20
2014,12,15,10,06,3.30
2014,12,15,10,07,3.30
2014,12,15,10,08,3.30
2014,12,15,10,09,3.30
2014,12,15,10,10,3.30
2014,12,15,10,11,3.30
2014,12,15,10,12,3.30
2014,12,15,10,13,3.30
2014,12,15,10,14,3.30
2014,12,15,10,15,3.30
2014,12,15,10,16,3.30
2014,12,15,10,17,3.30
2014,12,15,10,18,3.30
2014,12,15,10,19,3.30
2014,12,15,10,20,3.30
2014,12,15,10,21,3.40
2014,12,15,10,22,3.40
2014,12,15,10,23,3.40
2014,12,15,10,24,3.40
2014,12,15,10,25,3.40
2014,12,15,10,26,3.40
2014,12,15,10,27,3.40
2014,12,15,10,28,3.40
2014,12,15,10,29,3.40
2014,12,15,10,30,3.40
2014,12,15,10,31,3.40
2014,12,15,10,32,3.40
2014,12,15,10,33,3.40
2014,12,15,10,34,3.50
2014,12,15,10,35,3.50
2014,12,15,10,36,3.50
2014,12,15,10,37,3.50
2014,12,15,10,38,3.60
2014,12,15,10,39,3.60
2014,12,15,10,40,3.60
2014,12,15,10,41,3.60
2014,12,15,10,42,3.60
2014,12,15,10,43,3.60
2014,12,15,10,44,3.60
2014,12,15,10,45,3.60
2014,12,15,10,46,3.60
2014,12,15,10,47,3.60
2014,12,15,10,48,3.60
2014,12,15,10,49,3.70
2014,12,15,10,50,3.70
2014,12,15,10,51,3.70
2014,12,15,10,52,3.70
2014,12,15,10,53,3.80
2014,12,15,10,54,3.80
2014,12,15,10,55,3.80
2014,12,15,10,56,3.80
2014,12,15,10,57,3.80
2014,12,15,10,58,3.80
2014,12,15,10,59,3.80
2014,12,15,11,00,3.80
2014,12,15,11,01,3.80
2014,12,15,11,02,3.80
2014,12,15,11,03,3.90
2014,12,15,11,04,3.90
2014,12,15,11,05,3.90
2014,12,15,11,06,4.00
2014,12,15,11,07,4.00
2014,12,15,11,08,4.10
2014,12,15,11,09,4.10
2014,12,15,11,10,4.10
2014,12,15,11,11,4.10
2014,12,15,11,12,4.20
2014,12,15,11,13,4.20
2014,12,15,11,14,4.20
2014,12,15,11,15,4.20
2014,12,15,11,16,4.20
2014,12,15,11,17,4.20
2014,12,15,11,18,4.20
2014,12,15,11,19,4.20
2014,12,15,11,20,4.20
2014,12,15,11,21,4.20
2014,12,15,11,22,4.20
2014,12,15,11,23,4.30
2014,12,15,11,24,4.30
2014,12,15,11,25,4.40
2014,12,15,11,26,4.40
2014,12,15,11,27,4.50
2014,12,15,11,28,4.70
2014,12,15,11,29,4.80
2014,12,15,11,30,4.90
2014,12,15,11,31,5.00
2014,12,15,11,32,5.00
2014,12,15,11,33,5.10
2014,12,15,11,34,5.10
2014,12,15,11,35,5.20
2014,12,15,11,36,5.20
2014,12,15,11,37,5.20
2014,12,15,11,38,5.20
2014,12,15,11,39,5.20
2014,12,15,11,40,5.30
2014,12,15,11,41,5.30
2014,12,15,11,42,5.40
2014,12,15,11,43,5.40
2014,12,15,11,44,5.40
2014,12,15,11,45,5.40
2014,12,15,11,46,5.40
2014,12,15,11,47,5.30
2014,12,15,11,48,5.30
2014,12,15,11,49,5.30
2014,12,15,11,50,5.30
2014,12,15,11,51,5.30
2014,12,15,11,52,5.40
2014,12,15,11,53,5.40
2014,12,15,11,54,5.50
2014,12,15,11,55,5.50
2014,12,15,11,56,5.60
2014,12,15,11,57,5.70
2014,12,15,11,58,5.70
2014,12,15,11,59,5.70
2014,12,15,12,00,5.80
2014,12,15,12,01,5.80
2014,12,15,12,02,5.80
2014,12,15,12,03,5.80
2014,12,15,12,04,5.80
2014,12,15,12,05,5.80
2014,12,15,12,06,5.80
2014,12,15,12,07,5.80
2014,12,15,12,08,5.80
2014,12,15,12,09,5.80
2014,12,15,12,10,5.80
2014,12,15,12,11,5.80
2014,12,15,12,12,5.80
2014,12,15,12,13,5.80
2014,12,15,12,14,5.80
2014,12,15,12,15,5.70
2014,12,15,12,16,5.70
2014,12,15,12,17,5.70
2014,12,15,12,18,5.70
2014,12,15,12,19,5.70
2014,12,15,12,20,5.70
2014,12,15,12,21,5.70
2014,12,15,12,22,5.70
2014,12,15,12,23,5.80
2014,12,15,12,24,5.80
2014,12,15,12,25,5.90
2014,12,15,12,26,5.90
2014,12,15,12,27,5.90
2014,12,15,12,28,5.90
2014,12,15,12,29,6.00
2014,12,15,12,30,6.00
2014,12,15,12,31,6.00
2014,12,15,12,32,6.00
2014,12,15,12,33,6.00
2014,12,15,12,34,6.10
2014,12,15,12,35,6.10
2014,12,15,12,36,6.20
2014,12,15,12,37,6.20
2014,12,15,12,38,6.20
2014,12,15,12,39,6.20
2014,12,15,12,40,6.20
2014,12,15,12,41,6.20
2014,12,15,12,42,6.20
2014,12,15,12,43,6.20
2014,12,15,12,44,6.20
2014,12,15,12,45,6.20
2014,12,15,12,46,6.20
2014,12,15,12,47,6.20
2014,12,15,12,48,6.20
2014,12,15,12,49,6.20
2014,12,15,12,50,6.30
2014,12,15,12,51,6.30
2014,12,15,12,52,6.30
2014,12,15,12,53,6.30
2014,12,15,12,54,6.30
2014,12,15,12,55,6.30
2014,12,15,12,56,6.30
2014,12,15,12,57,6.30
2014,12,15,12,58,6.20
2014,12,15,12,59,6.20
2014,12,15,13,00,6.20
2014,12,15,13,01,6.20
2014,12,15,13,02,6.20
2014,12,15,13,03,6.20
2014,12,15,13,04,6.20
2014,12,15,13,05,6.10
2014,12,15,13,06,6.10
2014,12,15,13,07,6.00
2014,12,15,13,08,6.00
2014,12,15,13,09,6.00
2014,12,15,13,10,5.90
2014,12,15,13,11,5.90
2014,12,15,13,12,5.80
2014,12,15,13,13,5.80
2014,12,15,13,14,5.80
2014,12,15,13,15,5.80
2014,12,15,13,16,5.80
2014,12,15,13,17,5.80
2014,12,15,13,18,5.80
2014,12,15,13,19,5.80
2014,12,15,13,20,5.80
2014,12,15,13,21,5.80
2014,12,15,13,22,5.80
2014,12,15,13,23,5.80
2014,12,15,13,24,5.70
2014,12,15,13,25,5.70
2014,12,15,13,26,5.70
2014,12,15,13,27,5.70
2014,12,15,13,28,5.70
2014,12,15,13,29,5.60
2014,12,15,13,30,5.60
2014,12,15,13,31,5.60
2014,12,15,13,32,5.60
2014,12,15,13,33,5.60
2014,12,15,13,34,5.60
2014,12,15,13,35,5.60
2014,12,15,13,36,5.60
2014,12,15,13,37,5.50
2014,12,15,13,38,5.50
2014,12,15,13,39,5.50
2014,12,15,13,40,5.40
2014,12,15,13,41,5.40
2014,12,15,13,42,5.40
2014,12,15,13,43,5.40
2014,12,15,13,44,5.40
2014,12,15,13,45,5.30
2014,12,15,13,46,5.30
2014,12,15,13,47,5.30
2014,12,15,13,48,5.30
2014,12,15,13,49,5.30
2014,12,15,13,50,5.20
2014,12,15,13,51,5.20
2014,12,15,13,52,5.20
2014,12,15,13,53,5.20
2014,12,15,13,54,5.20
2014,12,15,13,55,5.20
2014,12,15,13,56,5.20
2014,12,15,13,57,5.10
2014,12,15,13,58,5.10
2014,12,15,13,59,5.10
2014,12,15,14,00,5.10
2014,12,15,14,01,5.10
2014,12,15,14,02,5.00
2014,12,15,14,03,5.00
2014,12,15,14,04,5.00
2014,12,15,14,05,4.90
2014,12,15,14,06,4.90
2014,12,15,14,07,4.90
2014,12,15,14,08,4.90
2014,12,15,14,09,4.90
2014,12,15,14,10,4.90
2014,12,15,14,11,4.90
2014,12,15,14,12,4.90
2014,12,15,14,13,4.90
2014,12,15,14,14,4.90
2014,12,15,14,15,4.90
2014,12,15,14,16,4.80
2014,12,15,14,17,4.80
2014,12,15,14,18,4.80
2014,12,15,14,19,4.80
2014,12,15,14,20,4.80
2014,12,15,14,21,4.80
2014,12,15,14,22,4.80
2014,12,15,14,23,4.80
2014,12,15,14,24,4.80
2014,12,15,14,25,4.80
2014,12,15,14,26,4.80
2014,12,15,14,27,4.80
2014,12,15,14,28,4.80
2014,12,15,14,29,4.80
2014,12,15,14,30,4.80
2014,12,15,14,31,4.80
2014,12,15,14,32,4.90
2014,12,15,14,33,4.90
2014,12,15,14,34,4.90
2014,12,15,14,35,4.90
2014,12,15,14,36,4.90
2014,12,15,14,37,4.90
2014,12,15,14,38,4.90
2014,12,15,14,39,4.90
2014,12,15,14,40,4.90
2014,12,15,14,41,4.90
2014,12,15,14,42,4.90
2014,12,15,14,43,4.90
2014,12,15,14,44,4.90
2014,12,15,14,45,5.00
2014,12,15,14,46,5.00
2014,12,15,14,47,5.00
2014,12,15,14,48,5.10
2014,12,15,14,49,5.10
2014,12,15,14,50,5.10
2014,12,15,14,51,5.00
2014,12,15,14,52,5.00
2014,12,15,14,53,5.00
2014,12,15,14,54,5.10
2014,12,15,14,55,5.10
2014,12,15,14,56,5.10
2014,12,15,14,57,5.10
2014,12,15,14,58,5.10
2014,12,15,14,59,5.00
2014,12,15,15,00,5.00
2014,12,15,15,01,5.00
2014,12,15,15,02,4.90
2014,12,15,15,03,4.90
2014,12,15,15,04,4.90
2014,12,15,15,05,4.80
2014,12,15,15,06,4.80
2014,12,15,15,07,4.80
2014,12,15,15,08,4.80
2014,12,15,15,09,4.80
2014,12,15,15,10,4.80
2014,12,15,15,11,4.80
2014,12,15,15,12,4.80
2014,12,15,15,13,4.80
2014,12,15,15,14,4.80
2014,12,15,15,15,4.80
2014,12,15,15,16,4.80
2014,12,15,15,17,4.80
2014,12,15,15,18,4.70
2014,12,15,15,19,4.70
2014,12,15,15,20,4.70
2014,12,15,15,21,4.70
2014,12,15,15,22,4.70
2014,12,15,15,23,4.70
2014,12,15,15,24,4.60
2014,12,15,15,25,4.60
2014,12,15,15,26,4.60
2014,12,15,15,27,4.60
2014,12,15,15,28,4.60
2014,12,15,15,29,4.50
2014,12,15,15,30,4.50
2014,12,15,15,31,4.40
2014,12,15,15,32,4.40
2014,12,15,15,33,4.40
2014,12,15,15,34,4.40
2014,12,15,15,35,4.30
2014,12,15,15,36,4.30
2014,12,15,15,37,4.30
2014,12,15,15,38,4.30
2014,12,15,15,39,4.30
2014,12,15,15,40,4.30
2014,12,15,15,41,4.30
2014,12,15,15,42,4.30
2014,12,15,15,43,4.30
2014,12,15,15,44,4.30
2014,12,15,15,45,4.30
2014,12,15,15,46,4.30
2014,12,15,15,47,4.30
2014,12,15,15,48,4.20
2014,12,15,15,49,4.20
2014,12,15,15,50,4.20
2014,12,15,15,51,4.20
2014,12,15,15,52,4.20
2014,12,15,15,53,4.20
2014,12,15,15,54,4.20
2014,12,15,15,55,4.20
2014,12,15,15,56,4.20
2014,12,15,15,57,4.20
2014,12,15,15,58,4.20
2014,12,15,15,59,4.20
2014,12,15,16,00,4.20
2014,12,15,16,01,4.20
2014,12,15,16,02,4.20
2014,12,15,16,03,4.20
2014,12,15,16,04,4.20
2014,12,15,16,05,4.20
2014,12,15,16,06,4.20
2014,12,15,16,07,4.20
2014,12,15,16,08,4.20
2014,12,15,16,09,4.20
2014,12,15,16,10,4.20
2014,12,15,16,11,4.10
2014,12,15,16,12,4.10
2014,12,15,16,13,4.10
2014,12,15,16,14,4.10
2014,12,15,16,15,4.10
2014,12,15,16,16,4.10
2014,12,15,16,17,4.10
2014,12,15,16,18,4.10
2014,12,15,16,19,4.10
2014,12,15,16,20,4.10
2014,12,15,16,21,4.10
2014,12,15,16,22,4.10
2014,12,15,16,23,4.10
2014,12,15,16,24,4.10
2014,12,15,16,25,4.10
2014,12,15,16,26,4.10
2014,12,15,16,27,4.10
2014,12,15,16,28,4.10
2014,12,15,16,29,4.10
2014,12,15,16,30,4.00
2014,12,15,16,31,4.00
2014,12,15,16,32,4.00
2014,12,15,16,33,4.00
2014,12,15,16,34,4.00
2014,12,15,16,35,4.00
2014,12,15,16,36,4.00
2014,12,15,16,37,4.00
2014,12,15,16,38,4.00
2014,12,15,16,39,4.00
2014,12,15,16,40,4.00
2014,12,15,16,41,4.00
2014,12,15,16,42,4.00
2014,12,15,16,43,4.00
2014,12,15,16,44,4.00
2014,12,15,16,45,4.00
2014,12,15,16,46,4.00
2014,12,15,16,47,4.00
2014,12,15,16,48,4.00
2014,12,15,16,49,4.00
2014,12,15,16,50,4.00
2014,12,15,16,51,4.00
2014,12,15,16,52,4.00
2014,12,15,16,53,4.00
2014,12,15,16,54,3.90
2014,12,15,16,55,3.90
2014,12,15,16,56,3.90
2014,12,15,16,57,3.90
2014,12,15,16,58,3.90
2014,12,15,16,59,3.90
2014,12,15,17,00,4.00
2014,12,15,17,01,4.00
2014,12,15,17,02,4.00
2014,12,15,17,03,4.00
2014,12,15,17,04,4.00
2014,12,15,17,05,4.00
2014,12,15,17,06,4.00
2014,12,15,17,07,4.00
2014,12,15,17,08,4.00
2014,12,15,17,09,4.00
2014,12,15,17,10,4.00
2014,12,15,17,11,4.00
2014,12,15,17,12,4.00
2014,12,15,17,13,4.00
2014,12,15,17,14,4.00
2014,12,15,17,15,4.00
2014,12,15,17,16,4.00
2014,12,15,17,17,4.00
2014,12,15,17,18,4.00
2014,12,15,17,19,4.00
2014,12,15,17,20,4.00
2014,12,15,17,21,4.00
2014,12,15,17,22,4.00
2014,12,15,17,23,4.00
2014,12,15,17,24,4.00
2014,12,15,17,25,4.00
2014,12,15,17,26,4.00
2014,12,15,17,27,4.00
2014,12,15,17,28,4.00
2014,12,15,17,29,4.00
2014,12,15,17,30,4.00
2014,12,15,17,31,4.00
2014,12,15,17,32,4.00
2014,12,15,17,33,4.00
2014,12,15,17,34,4.00
2014,12,15,17,35,3.90
2014,12,15,17,36,3.90
2014,12,15,17,37,3.90
2014,12,15,17,38,3.90
2014,12,15,17,39,3.90
2014,12,15,17,40,3.90
2014,12,15,17,41,3.90
2014,12,15,17,42,3.90
2014,12,15,17,43,3.90
2014,12,15,17,44,3.90
2014,12,15,17,45,3.90
2014,12,15,17,46,3.90
2014,12,15,17,47,3.90
2014,12,15,17,48,3.90
2014,12,15,17,49,3.90
2014,12,15,17,50,3.90
2014,12,15,17,51,3.90
2014,12,15,17,52,3.80
2014,12,15,17,53,3.90
2014,12,15,17,54,3.80
2014,12,15,17,55,3.80
2014,12,15,17,56,3.80
2014,12,15,17,57,3.80
2014,12,15,17,58,3.80
2014,12,15,17,59,3.80
2014,12,15,18,00,3.80
2014,12,15,18,01,3.80
2014,12,15,18,02,3.80
2014,12,15,18,03,3.70
2014,12,15,18,04,3.70
2014,12,15,18,05,3.70
2014,12,15,18,06,3.70
2014,12,15,18,07,3.70
2014,12,15,18,08,3.70
2014,12,15,18,09,3.70
2014,12,15,18,10,3.70
2014,12,15,18,11,3.70
2014,12,15,18,12,3.70
2014,12,15,18,13,3.70
2014,12,15,18,14,3.70
2014,12,15,18,15,3.70
2014,12,15,18,16,3.70
2014,12,15,18,17,3.70
2014,12,15,18,18,3.70
2014,12,15,18,19,3.70
2014,12,15,18,20,3.70
2014,12,15,18,21,3.70
2014,12,15,18,22,3.70
2014,12,15,18,23,3.70
2014,12,15,18,24,3.70
2014,12,15,18,25,3.70
2014,12,15,18,26,3.70
2014,12,15,18,27,3.70
2014,12,15,18,28,3.70
2014,12,15,18,29,3.70
2014,12,15,18,30,3.70
2014,12,15,18,31,3.70
2014,12,15,18,32,3.70
2014,12,15,18,33,3.70
2014,12,15,18,34,3.70
2014,12,15,18,35,3.70
2014,12,15,18,36,3.70
2014,12,15,18,37,3.60
2014,12,15,18,38,3.60
2014,12,15,18,39,3.60
2014,12,15,18,40,3.60
2014,12,15,18,41,3.60
2014,12,15,18,42,3.60
2014,12,15,18,43,3.60
2014,12,15,18,44,3.60
2014,12,15,18,45,3.60
2014,12,15,18,46,3.60
2014,12,15,18,47,3.70
2014,12,15,18,48,3.70
2014,12,15,18,49,3.70
2014,12,15,18,50,3.70
2014,12,15,18,51,3.70
2014,12,15,18,52,3.70
2014,12,15,18,53,3.70
2014,12,15,18,54,3.70
2014,12,15,18,55,3.70
2014,12,15,18,56,3.70
2014,12,15,18,57,3.70
2014,12,15,18,58,3.70
2014,12,15,18,59,3.70
2014,12,15,19,00,3.60